Regional Weather Roundup
Issued by NWS

Home | Current Version | Previous Version | Text Only | Print | Product List | Glossary Off
Versions: 1 2 3 4 5 6 7 8 9 10 11 12 13 14 15 16 17 18 19 20 21 22 23 24 25 26 27 28 29 30 31 32 33 34 35 36 37 38 39 40 41 42 43 44 45 46 47 48 49 50

000
ASUS43 KLSX 291959
RWRMO

WEATHER SUMMARY FOR MISSOURI
NATIONAL WEATHER SERVICE SPRINGFIELD MO
300 PM CDT SUN MAR 29 2015

NOTE: "FAIR" INDICATES FEW OR NO CLOUDS BELOW 12,000 FEET WITH NO
       SIGNIFICANT WEATHER AND/OR OBSTRUCTIONS TO VISIBILITY.
       CURRENT SKY AND/OR WEATHER CONDITIONS ARE NOT AVAILABLE FOR
       CHILLICOTHE AND FARMINGTON.

MOZ001>031-035>038-043-044-053-054-292100-
...NORTHERN AND WESTERN MISSOURI...

CITY           SKY/WX    TMP DP  RH WIND       PRES   REMARKS
KANSAS CTY INT PTSUNNY   68  40  35 NW20G29   29.97F
KANSAS C DTWN  CLOUDY    68  41  37 W14G22    29.97F
LEE`S SUMMIT   MOSUNNY   62  42  47 NW15G24   29.98S
ST JOSEPH      PTSUNNY   67  41  38 NW28G36   29.98R
CHILLICOTHE      N/A     64  43  46 W10       29.94F

$$
MOZ066>068-077>081-088>096-101>105-292100-
...SOUTHWEST MISSOURI...

CITY           SKY/WX    TMP DP  RH WIND       PRES   REMARKS
SPRINGFIELD    CLOUDY    62  41  46 W3        29.99F
JOPLIN         CLOUDY    60  43  53 W13G22    30.05R

$$
MOZ032>034-039>042-045>050-055>058-069>072-292100-
...CENTRAL MISSOURI...

CITY           SKY/WX    TMP DP  RH WIND       PRES   REMARKS
COLUMBIA       CLOUDY    54  38  54 W13       29.98S
JEFFERSON CITY CLOUDY    56  36  47 W9        29.97F
ROLLA          PTSUNNY   57  38  48 W14G25    29.95F
SEDALIA        PTSUNNY   59  41  51 W12G21    29.98F
OSAGE BEACH    CLOUDY    55  36  47 SW10      29.99F

$$
MOZ051-052-059>065-292100-
...EAST CENTRAL MISSOURI...

CITY           SKY/WX    TMP DP  RH WIND       PRES   REMARKS
ST LOUIS INTL  CLOUDY    59  33  37 SW12      29.95F
SPIRIT OF STL  LGT RAIN  59  35  40 SW13      29.95F
ST CHARLES     CLOUDY    58  34  40 W13       29.95F

$$
MOZ072>076-082>087-097>100-106>115-292100-
...SOUTH CENTRAL AND SOUTHEAST MISSOURI...

CITY           SKY/WX    TMP DP  RH WIND       PRES   REMARKS
CAPE GIRARDEAU CLOUDY    53  39  59 S16G24    30.05F
FARMINGTON     MOSUNNY   59  39  47 S21G29    30.00S
POPLAR BLUFF   PTSUNNY   54  41  61 S18G25    30.04F
WEST PLAINS    MOSUNNY   58  41  53 S12       30.01F

$$



USA.gov is the U.S. government's official web portal to all federal, state and local government web resources and services.